San Carlos, CA

10:50 PM PDT on June 28, 2017 (GMT -0700)
San Carlos

Weather History for KSQL - March, 2013

Change the Weather History Date:

Tuesday, March 26, 2013

  Actual Average Record
Temperature  
Mean Temperature 56 °F -  
Max Temperature 64 °F 66 °F 86 °F (2002)
Min Temperature 48 °F 44 °F 35 °F (1972)
Degree Days  
Heating Degree Days 9    
Growing Degree Days 6 (Base 50)    
Moisture  
Dew Point 43 °F    
Average Humidity 71    
Maximum Humidity 82    
Minimum Humidity 49    
Precipitation  
Precipitation 0.00 in - - ()
Sea Level Pressure  
Sea Level Pressure 30.01 in    
Wind  
Wind Speed 5 mph (WNW)    
Max Wind Speed 12 mph    
Max Gust Speed -    
Visibility 10 miles    
Events      
Averages and records for this station are not official NWS values.
T = Trace of Precipitation, MM = Missing Value Source: NWS Daily Summary

Daily Weather History Graph

Daily Weather History Graph

Search for Another Location

Airport or City:

Trip Planner

Search our weather history database for the weather conditions in past years. The results will help you decide how hot, cold, wet, or windy it might be!

Date:

Astronomy

Mar. 26, 2013 Rise Set
Actual Time 7:02 AM PDT 7:26 PM PDT
Civil Twilight 6:36 AM PDT 7:52 PM PDT
Nautical Twilight 6:06 AM PDT 8:23 PM PDT
Astronomical Twilight 5:34 AM PDT 8:55 PM PDT
Moon 7:09 PM PDT (3/26) 6:22 AM PDT (3/26)
Length of Visible Light 13h 16m
Length of Day
12h 23m
Full, 100% of the Moon is Illuminated
Mar 26
Full
Mar 27
Full
Apr 2
Last Quarter
Apr 10
New
Apr 18
First Quarter

Hourly Weather History & Observations

Time (PDT) Temp. Dew Point Humidity Pressure Visibility Wind Dir Wind Speed Gust Speed Precip Events Conditions
12:15 AM 50.0 °F 42.8 °F 76% 30.03 in 10.0 mi West 6.9 mph - N/A   Scattered Clouds
12:30 AM 50.0 °F 42.8 °F 76% 30.03 in 10.0 mi West 6.9 mph - N/A   Mostly Cloudy
12:50 AM 50.0 °F 42.8 °F 76% 30.03 in 10.0 mi West 6.9 mph - N/A   Mostly Cloudy
1:15 AM 50.0 °F 42.8 °F 76% 30.04 in 10.0 mi West 3.5 mph - N/A   Overcast
1:30 AM 50.0 °F 42.8 °F 76% 30.04 in 10.0 mi WNW 4.6 mph - N/A   Overcast
1:50 AM 50.0 °F 42.8 °F 76% 30.03 in 10.0 mi West 4.6 mph - N/A   Overcast
2:15 AM 48.2 °F 42.8 °F 82% 30.03 in 10.0 mi West 4.6 mph - N/A   Overcast
2:30 AM 48.2 °F 41.0 °F 76% 30.03 in 10.0 mi WSW 3.5 mph - N/A   Overcast
2:50 AM 50.0 °F 42.8 °F 76% 30.02 in 10.0 mi West 3.5 mph - N/A   Overcast
3:15 AM 48.2 °F 42.8 °F 82% 30.02 in 10.0 mi WSW 3.5 mph - N/A   Overcast
3:30 AM 48.2 °F 42.8 °F 82% 30.01 in 10.0 mi WSW 3.5 mph - N/A   Overcast
3:50 AM 50.0 °F 42.8 °F 76% 30.01 in 10.0 mi SW 3.5 mph - N/A   Overcast
4:10 AM 50.0 °F 42.8 °F 76% 30.01 in 10.0 mi Calm Calm - N/A   Overcast
4:30 AM 50.0 °F 42.8 °F 76% 30.01 in 10.0 mi WSW 3.5 mph - N/A   Overcast
4:50 AM 50.0 °F 42.8 °F 76% 30.01 in 10.0 mi Calm Calm - N/A   Overcast
5:15 AM 50.0 °F 42.8 °F 76% 30.01 in 10.0 mi West 4.6 mph - N/A   Overcast
5:30 AM 50.0 °F 42.8 °F 76% 30.01 in 10.0 mi West 4.6 mph - N/A   Overcast
5:50 AM 50.0 °F 42.8 °F 76% 30.01 in 10.0 mi WSW 3.5 mph - N/A   Overcast
6:10 AM 48.2 °F 42.8 °F 82% 30.01 in 10.0 mi WSW 3.5 mph - N/A   Overcast
6:35 AM 48.2 °F 42.8 °F 82% 30.01 in 10.0 mi West 3.5 mph - N/A   Overcast
6:47 AM 48.2 °F 42.8 °F 82% 30.01 in 10.0 mi West 5.8 mph - N/A   Mostly Cloudy
6:50 AM 48.2 °F 42.8 °F 82% 30.01 in 10.0 mi West 4.6 mph - N/A   Overcast
7:47 AM 48.2 °F 42.8 °F 82% 30.02 in 10.0 mi West 4.6 mph - N/A   Mostly Cloudy
8:53 AM 50.0 °F 41.0 °F 71% 30.02 in 10.0 mi WNW 4.6 mph - N/A   Mostly Cloudy
9:58 AM 53.6 °F 42.8 °F 67% 30.03 in 10.0 mi Variable 3.5 mph - N/A   Mostly Cloudy
10:55 AM 55.4 °F 44.6 °F 67% 30.03 in 10.0 mi ENE 3.5 mph - N/A   Mostly Cloudy
11:49 AM 55.4 °F 46.4 °F 72% 30.02 in 10.0 mi Variable 4.6 mph - N/A   Mostly Cloudy
12:47 PM 55.4 °F 46.4 °F 72% 30.02 in 10.0 mi NNE 9.2 mph - N/A   Mostly Cloudy
1:47 PM 59.0 °F 46.4 °F 63% 30.00 in 10.0 mi North 11.5 mph - N/A   Mostly Cloudy
2:47 PM 62.6 °F 44.6 °F 52% 29.98 in 10.0 mi North 10.4 mph - N/A   Mostly Cloudy
3:53 PM 64.4 °F 44.6 °F 49% 29.96 in 10.0 mi North 9.2 mph - N/A   Scattered Clouds
4:47 PM 62.6 °F 44.6 °F 52% 29.95 in 10.0 mi North 11.5 mph - N/A   Scattered Clouds
6:50 PM 59.0 °F 41.0 °F 51% 29.96 in 10.0 mi WNW 10.4 mph - N/A   Scattered Clouds
7:50 PM 57.2 °F 41.0 °F 55% 29.96 in 10.0 mi WNW 10.4 mph - N/A   Mostly Cloudy
8:51 PM 53.6 °F 42.8 °F 67% 29.98 in 10.0 mi NW 10.4 mph - N/A   Scattered Clouds
9:15 PM 53.6 °F 44.6 °F 72% 29.98 in 10.0 mi NW 8.1 mph - N/A   Mostly Cloudy
9:30 PM 53.6 °F 44.6 °F 72% 29.98 in 10.0 mi WNW 6.9 mph - N/A   Mostly Cloudy
9:50 PM 53.6 °F 44.6 °F 72% 29.99 in 10.0 mi NW 6.9 mph - N/A   Overcast
10:10 PM 53.6 °F 44.6 °F 72% 29.99 in 10.0 mi NNW 5.8 mph - N/A   Overcast
10:35 PM 55.4 °F 41.0 °F 58% 30.00 in 10.0 mi WNW 5.8 mph - N/A   Mostly Cloudy
10:50 PM 53.6 °F 39.2 °F 58% 30.00 in 10.0 mi West 4.6 mph - N/A   Scattered Clouds
11:10 PM 53.6 °F 39.2 °F 58% 30.00 in 10.0 mi WNW 4.6 mph - N/A   Partly Cloudy
11:35 PM 53.6 °F 41.0 °F 62% 30.00 in 10.0 mi Calm Calm - N/A   Mostly Cloudy
11:50 PM 53.6 °F 41.0 °F 62% 30.00 in 10.0 mi Calm Calm - N/A   Overcast